Anoka County, MN

10:38 PM CDT on October 23, 2019 (GMT -0500)
Anoka County / Blaine Airport

Weather History for KANE - August, 2019

Change the Weather History Date:

Friday, August 30, 2019

  Actual Average Record
Temperature  
Mean Temperature 62 °F -  
Max Temperature 73 °F 76 °F 91 °F (2012)
Min Temperature 50 °F 56 °F 46 °F (2003)
Degree Days  
Heating Degree Days 4    
Growing Degree Days 12 (Base 50)    
Moisture  
Dew Point 50 °F    
Average Humidity 78    
Maximum Humidity 100    
Minimum Humidity 38    
Precipitation  
Precipitation 0.00 in - - ()
Sea Level Pressure  
Sea Level Pressure 30.13 in    
Wind  
Wind Speed 3 mph (WNW)    
Max Wind Speed 12 mph    
Max Gust Speed 14 mph    
Visibility 10 miles    
Events      
Averages and records for this station are not official NWS values.
T = Trace of Precipitation, MM = Missing Value Source: NWS Daily Summary

Daily Weather History Graph

Daily Weather History Graph

Search for Another Location

Airport or City:

Astronomy

Aug. 30, 2019 Rise Set
Actual Time 6:32 AM CDT 7:54 PM CDT
Civil Twilight 6:01 AM CDT 8:24 PM CDT
Nautical Twilight 5:24 AM CDT 9:01 PM CDT
Astronomical Twilight 4:45 AM CDT 9:40 PM CDT
Moon 6:30 AM CDT (8/30) 8:31 PM CDT (8/30)
Length of Visible Light 14h 23m
Length of Day
13h 22m
New Moon, 0% of the Moon is Illuminated
Aug 30
New Moon
Sep 5
First Quarter
Sep 13
Full
Sep 21
Last Quarter
Sep 28
New

Hourly Weather History & Observations

Time (CDT) Temp. Dew Point Humidity Pressure Visibility Wind Dir Wind Speed Gust Speed Precip Events Conditions
12:15 AM 59.0 °F 51.8 °F 77% 30.04 in 10.0 mi West 3.5 mph - N/A   Unknown
12:19 AM 57.2 °F 51.8 °F 82% 30.04 in 10.0 mi West 4.6 mph - N/A   Unknown
12:38 AM 57.2 °F 51.8 °F 82% 30.04 in 10.0 mi West 5.8 mph - N/A   Unknown
12:55 AM 55.4 °F 51.8 °F 88% 30.05 in 7.0 mi West 5.8 mph - N/A   Unknown
1:15 AM 55.4 °F 50.0 °F 82% 30.04 in 10.0 mi West 4.6 mph - N/A   Unknown
1:36 AM 53.6 °F 50.0 °F 88% 30.04 in 10.0 mi West 3.5 mph - N/A   Unknown
1:59 AM 53.6 °F 50.0 °F 88% 30.05 in 10.0 mi West 3.5 mph - N/A   Unknown
2:16 AM 55.4 °F 50.0 °F 82% 30.05 in 10.0 mi Calm Calm - N/A   Unknown
2:36 AM 55.4 °F 50.0 °F 82% 30.05 in 10.0 mi Calm Calm - N/A   Unknown
2:56 AM 53.6 °F 50.0 °F 88% 30.06 in 10.0 mi Calm Calm - N/A   Unknown
3:15 AM 53.6 °F 51.8 °F 94% 30.06 in 10.0 mi Calm Calm - N/A   Unknown
3:37 AM 53.6 °F 51.8 °F 94% 30.07 in 10.0 mi Calm Calm - N/A   Unknown
3:56 AM 55.4 °F 51.8 °F 88% 30.08 in 10.0 mi Calm Calm - N/A   Unknown
4:16 AM 53.6 °F 51.8 °F 94% 30.08 in 10.0 mi Calm Calm - N/A   Unknown
4:36 AM 53.6 °F 51.8 °F 94% 30.09 in 10.0 mi Calm Calm - N/A   Unknown
4:58 AM 53.6 °F 51.8 °F 94% 30.10 in 10.0 mi WNW 3.5 mph - N/A   Unknown
5:16 AM 51.8 °F 50.0 °F 94% 30.10 in 10.0 mi Calm Calm - N/A   Unknown
5:36 AM 51.8 °F 51.8 °F 100% 30.11 in 10.0 mi Calm Calm - N/A   Unknown
5:55 AM 51.8 °F 51.8 °F 100% 30.12 in 10.0 mi Calm Calm - N/A   Unknown
6:15 AM 51.8 °F 50.0 °F 94% 30.12 in 10.0 mi Calm Calm - N/A   Unknown
6:19 AM 51.8 °F 50.0 °F 94% 30.13 in 10.0 mi Calm Calm - N/A   Unknown
6:37 AM 50.0 °F 50.0 °F 100% 30.13 in 10.0 mi Calm Calm - N/A   Unknown
6:56 AM 51.8 °F 50.0 °F 94% 30.15 in 10.0 mi Calm Calm - N/A   Unknown
6:59 AM 51.8 °F 50.0 °F 94% 30.14 in 10.0 mi Calm Calm - N/A   Clear
7:45 AM 55.4 °F 51.8 °F 88% 30.15 in 10.0 mi WNW 4.6 mph - N/A   Clear
8:45 AM 59.0 °F 50.0 °F 72% 30.16 in 10.0 mi NNW 6.9 mph - N/A   Clear
9:50 AM 62.6 °F 50.0 °F 63% 30.18 in 10.0 mi Calm Calm - N/A   Clear
10:45 AM 66.2 °F 48.2 °F 52% 30.18 in 10.0 mi West 5.8 mph - N/A   Clear
11:45 AM 69.8 °F 46.4 °F 43% 30.19 in 10.0 mi West 5.8 mph - N/A   Partly Cloudy
12:45 PM 71.6 °F 46.4 °F 41% 30.18 in 10.0 mi NW 11.5 mph - N/A   Scattered Clouds
1:45 PM 71.6 °F 46.4 °F 41% 30.18 in 10.0 mi NW 11.5 mph - N/A   Scattered Clouds
2:45 PM 71.6 °F 44.6 °F 38% 30.16 in 10.0 mi NW 6.9 mph 13.8 mph N/A   Mostly Cloudy
3:45 PM 69.8 °F 46.4 °F 43% 30.17 in 10.0 mi WNW 6.9 mph - N/A   Mostly Cloudy
4:45 PM 73.4 °F 46.4 °F 38% 30.17 in 10.0 mi WNW 5.8 mph 12.7 mph N/A   Scattered Clouds
6:45 PM 71.6 °F 46.4 °F 41% 30.18 in 10.0 mi NNW 5.8 mph - N/A   Scattered Clouds
7:45 PM 66.2 °F 48.2 °F 52% 30.19 in 10.0 mi Calm Calm - N/A   Scattered Clouds
8:51 PM 59.0 °F 51.8 °F 77% 30.21 in 10.0 mi Calm Calm - N/A   Clear
9:45 PM 57.2 °F 51.8 °F 82% 30.22 in 10.0 mi Calm Calm - N/A   Clear
10:16 PM 57.2 °F 51.8 °F 82% 30.23 in 10.0 mi Calm Calm - N/A   Unknown
10:36 PM 57.2 °F 50.0 °F 77% 30.23 in 10.0 mi Calm Calm - N/A   Unknown
10:59 PM 55.4 °F 51.8 °F 88% 30.24 in 10.0 mi Calm Calm - N/A   Unknown
11:16 PM 57.2 °F 51.8 °F 82% 30.24 in 10.0 mi Calm Calm - N/A   Unknown
11:35 PM 57.2 °F 51.8 °F 82% 30.24 in 10.0 mi Calm Calm - N/A   Unknown
11:56 PM 57.2 °F 51.8 °F 82% 30.24 in 10.0 mi Calm Calm - N/A   Unknown